Weather observations for the past three days for
Lubbock, Lubbock International Airport
Imperial (Metric)
Date Time (cdt) Wind (mph) Vis. (mi.) Weather Sky Cond. Temperature (ºF) Relative Humidity Wind Chill (°F) Heat Index (°F) Pressure Precipitation (in)
Air Dwpt 6 hour altimeter (in) sea level (mb) 1 hr 3 hr 6 hr
Max. Min.
15 19:53 SE 14 G 20 10.00 Partly Cloudy FEW050 FEW070 SCT110 SCT200 87.8 59 38% 87 29.84 0.0
15 18:53 S 9 10.00 Partly Cloudy SCT085 SCT120 89.6 60.8 38% 90 29.86 0.0
15 17:53 SE 10 G 22 10.00 Mostly Cloudy BKN085 BKN110 91.4 59 34% 91 29.88 0.0
15 16:53 SE 17 10.00 Mostly Cloudy BKN085 BKN110 91 60.1 35% 91 29.88 1006.1
15 15:53 SE 13 G 22 10.00 Partly Cloudy SCT075 SCT200 93 61 34% 93 29.9 1007.0
15 14:53 S 14 G 23 10.00 A Few Clouds FEW060 FEW170 91 59 34% 90 29.92 1007.6
15 13:53 S 15 G 22 10.00 A Few Clouds FEW050 FEW250 90 62.1 39% 90 29.96 1008.5
15 12:53 S 17 10.00 A Few Clouds FEW050 FEW170 87.1 63 88 68 45% 88 29.97 1009.0
15 11:53 S 20 G 26 10.00 A Few Clouds FEW170 84.9 64.9 51% 87 29.98 1009.5
15 10:53 S 16 10.00 A Few Clouds FEW170 81 64 57% 83 29.99 1010.1
15 09:53 S 17 10.00 A Few Clouds FEW170 FEW250 78.1 64 62% 80 30.01 1010.8
15 08:53 S 21 G 26 10.00 A Few Clouds and Breezy FEW100 FEW250 75 62.1 64% 77 30.01 1010.7
15 07:53 SE 14 10.00 Mostly Cloudy FEW100 BKN150 BKN250 70 61 73% 30.01 1010.6
15 06:53 E 9 10.00 Mostly Cloudy FEW100 BKN150 BKN250 68 61 77 66.9 78% 30.01 1010.8
15 05:53 N 14 10.00 Overcast FEW060 BKN110 OVC250 69.1 60.1 73% 30.03 1011.5
15 04:53 E 10 10.00 Overcast FEW060 BKN150 OVC250 70 61 73% 30.04 1011.7
15 03:53 NE 20 10.00 Overcast SCT060 BKN180 OVC250 66.9 61 81% 30.09 1013.4
15 02:53 N 22 G 32 10.00 Light Rain and Breezy BKN060 BKN180 OVC250 71.1 61 71% 30.11 1013.9
15 01:53 N 9 10.00 Overcast FEW060 BKN180 OVC250 75.9 62.1 62% 78 30.08 1012.8
15 00:53 E 10 10.00 Mostly Cloudy FEW060 FEW120 BKN200 77 61 90 75.9 58% 79 30.06 1012.2
14 23:53 E 10 10.00 Partly Cloudy FEW060 FEW120 SCT250 78.1 61 56% 80 30.06 1012.0
14 22:53 E 10 10.00 Partly Cloudy SCT250 78.1 62.1 58% 80 30.04 1011.5
14 21:53 E 14 10.00 Fair CLR 81 61 51% 82 30.01 1010.6
14 20:53 SE 14 10.00 Partly Cloudy FEW060 SCT250 84 62.1 48% 85 29.99 1009.9
14 19:53 SE 16 10.00 A Few Clouds FEW060 FEW250 87.1 61 42% 87 29.98 1009.8
14 18:53 SE 14 G 24 10.00 A Few Clouds FEW060 FEW250 90 62.1 91.9 88 39% 90 29.97 1009.4
14 17:53 SE 17 G 28 10.00 A Few Clouds FEW060 FEW250 91 61 37% 91 29.99 1009.7
14 16:53 S 20 G 26 10.00 Partly Cloudy SCT065 91.9 62.1 37% 93 30.01 1010.4
14 15:53 SE 13 G 26 10.00 Partly Cloudy SCT060 91 64.9 42% 93 30.03 1011.0
14 14:53 SE 14 G 24 10.00 Partly Cloudy SCT060 91.9 66 43% 95 30.04 1011.4
14 13:53 SE 12 10.00 Partly Cloudy SCT055 90 66 45% 93 30.06 1012.1
14 12:53 S 13 G 22 10.00 Partly Cloudy SCT047 SCT150 88 66.9 88 70 50% 91 30.07 1012.7
14 11:53 S 10 10.00 A Few Clouds FEW030 FEW140 86 68 55% 89 30.09 1013.0
14 10:53 S 13 10.00 A Few Clouds FEW140 FEW180 82.9 68 61% 86 30.09 1013.0
14 09:53 S 14 10.00 Partly Cloudy FEW140 SCT190 80.1 66.9 64% 82 30.08 1013.1
14 08:53 S 9 10.00 Partly Cloudy FEW130 FEW160 SCT220 77 66.9 71% 79 30.08 1012.7
14 07:53 SE 7 10.00 A Few Clouds FEW150 FEW220 73 68 84% 30.07 1012.4
14 06:53 SE 9 10.00 A Few Clouds FEW200 70 66.9 73.9 70 90% 30.06 1012.0
14 05:53 SE 10 10.00 A Few Clouds FEW200 71.1 66.9 87% 30.04 1011.5
14 04:53 E 10 10.00 Fair CLR 71.1 66.9 87% 30.04 1011.5
14 03:53 E 10 10.00 Fair CLR 72 66.9 84% 30.04 1011.2
14 02:53 SE 9 10.00 Fair CLR 73 66 79% 30.02 1010.8
14 01:53 SE 10 10.00 Fair CLR 73.9 66.9 79% 30.03 1011.2
14 00:53 E 9 10.00 Fair CLR 73.9 68 93 73.9 82% 30.05 1012.0
13 23:53 NE 12 10.00 Fair CLR 77 66.9 71% 79 30.06 1012.4
13 22:53 SE 12 10.00 Fair CLR 80.1 66 62% 82 30.02 1011.0
13 21:53 SE 8 10.00 A Few Clouds FEW250 81 64.9 58% 83 30 1010.3
13 20:53 SE 13 10.00 A Few Clouds FEW055 FEW250 86 64 48% 87 29.98 1009.4
13 19:53 SE 16 10.00 A Few Clouds FEW250 91 63 39% 92 29.97 1008.9
13 18:53 S 17 10.00 A Few Clouds FEW250 93 60.1 95 89.1 33% 93 29.97 1009.1
13 17:53 SE 16 G 22 10.00 A Few Clouds FEW080 FEW250 95 60.1 31% 95 29.99 1009.6
13 16:53 S 14 10.00 A Few Clouds FEW250 95 63 35% 96 30 1009.8
13 15:53 S 14 G 23 10.00 Fair CLR 95 64.9 37% 98 30.02 1010.5
13 14:53 S 14 G 22 10.00 Fair CLR 93.9 66 40% 97 30.02 1010.8
13 13:53 S 13 10.00 Fair CLR 91.9 66.9 44% 95 30.04 1011.5
13 12:53 S 7 10.00 Fair CLR 89.1 70 90 69.1 53% 94 30.06 1012.1
13 11:53 S 8 10.00 Fair CLR 84.9 70 61% 89 30.06 1012.5
13 10:53 S 12 10.00 Fair CLR 82 70 67% 86 30.07 1012.8
13 09:53 S 13 10.00 Fair CLR 79 69.1 72% 82 30.06 1012.7
13 08:53 S 15 10.00 A Few Clouds FEW150 75.9 68 77% 77 30.05 1012.2
13 07:53 S 8 10.00 Fair CLR 72 66.9 84% 30.04 1011.8
13 06:53 SE 6 10.00 Fair CLR 69.1 66 73 69.1 90% 30.03 1011.6
13 05:53 SE 8 10.00 Fair CLR 69.1 66 90% 30.01 1011.0
13 04:53 S 9 10.00 Fair CLR 71.1 64.9 81% 30 1010.5
13 03:53 S 9 10.00 Fair CLR 71.1 64.9 81% 30 1010.3
13 02:53 SE 10 10.00 Fair CLR 71.1 64.9 81% 30 1010.5
13 01:53 SE 9 10.00 Fair CLR 72 64.9 79% 30.02 1011.1
13 00:53 SE 10 10.00 Fair CLR 73 64.9 87.1 73 76% 30.02 1011.4
12 23:53 SE 12 10.00 Fair CLR 75 66 74% 76 30.02 1011.4
12 22:53 SE 10 10.00 Fair CLR 75.9 64.9 69% 78 30.01 1011.1
12 21:53 SE 12 10.00 Fair CLR 78.1 66 67% 80 30 1010.8
12 20:53 SE 13 10.00 A Few Clouds FEW250 81 66 61% 83 29.99 1010.5
Date Time (cdt) Wind (mph) Vis. (mi.) Weather Sky Cond. Air Dwpt Max. Min. Relative Humidity Wind Chill (°F) Heat Index (°F) altimeter (in) sea level (mb) 1 hr 3 hr 6 hr
6 hour
Temperature (ºF) Pressure Precipitation (in)